Regional Weather Roundup
Issued by NWS Sioux Falls, SD

Home | Current Version | Previous Version | Text Only | Print | Product List | Glossary On
Versions: 1 2 3 4 5 6 7 8 9 10 11 12 13 14 15 16 17 18 19 20 21 22 23 24 25 26 27 28 29 30 31 32 33 34 35 36 37 38 39 40 41 42 43 44 45 46 47 48 49 50
679
ASUS43 KFSD 172010
RWRFSD

WEATHER ROUNDUP FOR SE SOUTH DAKOTA/SW MINNESOTA/NW IOWA
NATIONAL WEATHER SERVICE SIOUX FALLS SD
200 PM CST FRI NOV 17 2017

NOTE: "FAIR" INDICATES FEW OR NO CLOUDS BELOW 12,000 FEET WITH NO
SIGNIFICANT WEATHER AND OR OBSTRUCTIONS TO VISIBILITY.


SDZ038>040-050-052>070-172100-
SOUTHEAST SOUTH DAKOTA

CITY           SKY/WX    TMP DP  RH WIND       PRES   REMARKS
BROOKINGS        N/A     47  34  60 MISG      29.58S
CHAMBERLAIN    CLOUDY    47  37  67 NW10      29.64R
HURON          CLOUDY    47  33  58 N15       29.61S
MADISON        FAIR      45  37  76 NE14      29.58F
MITCHELL       CLOUDY    48  34  58 N14       29.59F
SIOUX FALLS    PTSUNNY   49  38  65 N12       29.57F
WINNER         CLOUDY    48  36  63 N7        29.65R
YANKTON        CLOUDY    49  38  65 N10       29.56F
$$

MNZ071-072-080-081-089-090-097-098-172100-
SOUTHWEST MINNESOTA

CITY           SKY/WX    TMP DP  RH WIND       PRES   REMARKS
FAIRMONT       CLOUDY    43  39  86 S8        29.59S
JACKSON        CLOUDY    45  37  76 CALM      29.58R
LUVERNE        CLOUDY    50  36  57 N9        29.57F
MARSHALL       CLOUDY    44  33  65 N8        29.60R
MONTEVIDEO     CLOUDY    43  34  70 N13       29.61S
PIPESTONE      RAIN      45  36  70 NE9       29.57S
REDWOOD FALLS  MOSUNNY   47  35  63 N8        29.59S
WINDOM           N/A     48  32  53 NW8       29.58S
WORTHINGTON    CLOUDY    49  40  71 N9        29.56F
$$

IAZ001>003-012>014-020>022-031-032-NEZ013-014-SDZ071-172100-
NORTHWEST IOWA

CITY           SKY/WX    TMP DP  RH WIND       PRES   REMARKS
CHEROKEE       CLOUDY    55  49  82 CALM      29.53F
DENISON        CLOUDY    54  52  94 SW3       29.54F FOG
ESTHERVILLE    CLOUDY    44  41  89 S5        29.57R
LE MARS        CLOUDY    55  45  67 NW13      29.55R
ORANGE CITY    MOSUNNY   54  46  76 NW8       29.55S
SHELDON        CLOUDY    54  43  66 NW12      29.54S
SIOUX CITY     CLOUDY    54  40  59 N20       29.53S
SPENCER        CLOUDY    51  44  77 CALM      29.56R
STORM LAKE     CLOUDY    52  48  87 SW6       29.54S
$$

ABBREVIATIONS USED IN REMARKS
   TC - TEMPERATURE IN CELSIUS
  WCI - WIND CHILL INDEX
   HX - HEAT INDEX
  VSB - VISIBILITY





USA.gov is the U.S. government's official web portal to all federal, state and local government web resources and services.